Date String (YYYY-MM-DD hh:mm:ss) UTC,Instrument flags,absolute air pressure of the measurement (hPa),sample flow rate (lpm),inlet stack bypass flow (lpm),air temperature of the measurement (°C),ambient temperature measured by the external sensor (°C),aerosol sample conditioner tube jacket temperature (°C),OPC LED temperature (°C),internal box temperature (°C),relative humidity of the measurement (%),span deviation,mass concentration of particles derived from Lorenz-Mie calculation of OPC scattering (μg/m³),mass concentration of particles derived from Lorenz-Mie calculation of OPC scattering (μg/m³),mass concentration of particles derived from Lorenz-Mie calculation of OPC scattering (μg/m³)
DateTimeUTC,F1_M11,P_M11,Q1_M11,Q2_M11,T1_M11,T2_M11,T3_M11,T4_M11,T5_M11,U1_M11,ZSPAN_M11,X0_M11,X2_M11,X1_M11
2024-06-14 11:00:00,SystemResetWarning,0833.2,5.00,000.00,030.3,029.8,000.0,038.5,032.1,034.2,0000.0,0034.10,0009.38,0006.52
2024-06-14 11:01:00,SystemResetWarning,0833.2,5.00,000.00,030.4,029.9,000.0,038.5,032.2,034.2,0000.0,0030.67,0009.30,0006.52
2024-06-14 11:02:00,SystemResetWarning,0833.2,5.00,000.00,030.4,029.9,000.0,038.6,032.2,034.1,0000.4,0029.74,0009.31,0006.53
2024-06-14 11:03:00,SystemResetWarning,0833.2,5.01,000.00,030.5,030.0,000.0,038.6,032.2,034.1,0002.0,0029.27,0009.30,0006.53
2024-06-14 11:04:00,SystemResetWarning,0833.3,5.01,000.00,030.5,030.0,000.0,038.6,032.3,034.0,0001.0,0029.04,0009.27,0006.52
2024-06-14 11:05:00,SystemResetWarning,0833.2,5.00,000.00,030.5,030.0,000.0,038.7,032.3,033.9,0000.0,0028.73,0009.33,0006.54
2024-06-14 11:06:00,SystemResetWarning,0833.3,4.99,000.00,030.6,030.1,000.0,038.7,032.3,033.8,0002.5,0027.75,0009.35,0006.54
2024-06-14 11:07:00,SystemResetWarning,0833.3,5.00,000.00,030.6,030.1,000.0,038.7,032.3,033.7,0002.7,0028.03,0009.42,0006.55
2024-06-14 11:08:00,SystemResetWarning,0833.3,5.00,000.00,030.6,030.1,000.0,038.8,032.4,033.7,0002.3,0029.98,0009.43,0006.56
2024-06-14 11:09:00,SystemResetWarning,0833.2,5.00,000.00,030.7,030.2,000.0,038.8,032.4,033.5,0001.8,0030.74,0009.44,0006.58
2024-06-14 11:10:00,SystemResetWarning,0833.2,5.00,000.00,030.7,029.7,000.0,038.8,032.1,033.5,0002.0,0029.89,0009.49,0006.59
2024-06-14 11:11:00,SystemResetWarning,0833.2,5.01,000.00,030.3,027.3,000.0,038.9,031.0,034.2,0002.4,0029.60,0009.46,0006.59
2024-06-14 11:12:00,SystemResetWarning,0833.2,5.00,000.00,029.9,026.4,000.0,038.9,030.5,035.2,0002.4,0030.49,0009.49,0006.61
2024-06-14 11:13:00,SystemResetWarning,0833.2,5.01,000.00,029.7,026.6,000.0,038.7,030.6,035.4,0002.2,0032.27,0009.57,0006.63
2024-06-14 11:14:00,SystemResetWarning,0833.2,5.00,000.00,029.7,027.1,000.0,038.6,030.8,035.4,0000.7,0032.94,0009.50,0006.63
2024-06-14 11:15:00,SystemResetWarning,0833.2,4.99,000.00,029.7,027.5,000.0,038.5,031.1,035.3,0001.1,0034.40,0009.48,0006.66
2024-06-14 11:16:00,SystemResetWarning,0833.2,5.00,000.00,029.7,027.9,000.0,038.4,031.2,035.3,0001.4,0036.27,0009.49,0006.66
2024-06-14 11:17:00,SystemResetWarning,0833.2,5.00,000.00,029.7,028.2,000.0,038.4,031.3,035.4,0000.1,0037.66,0009.52,0006.67
2024-06-14 11:18:00,SystemResetWarning,0833.2,4.99,000.00,029.8,028.5,000.0,038.4,031.4,035.4,0000.0,0038.06,0009.52,0006.68
2024-06-14 11:19:00,SystemResetWarning,0833.0,4.99,000.00,029.8,028.7,000.0,038.3,031.5,035.4,0000.0,0037.02,0009.60,0006.69
2024-06-14 11:20:00,SystemResetWarning,0833.1,4.99,000.00,029.8,028.9,000.0,038.3,031.6,035.3,0000.0,0036.29,0009.61,0006.69
2024-06-14 11:21:00,SystemResetWarning,0833.2,5.00,000.00,029.9,029.0,000.0,038.3,031.7,035.2,0000.0,0036.90,0009.57,0006.69
2024-06-14 11:22:00,SystemResetWarning,0833.2,5.01,000.00,029.9,029.1,000.0,038.3,031.7,035.2,0000.0,0037.83,0009.61,0006.70
2024-06-14 11:23:00,SystemResetWarning,0832.9,5.01,000.00,030.0,029.3,000.0,038.3,031.8,035.1,0000.0,0038.17,0009.70,0006.70
2024-06-14 11:24:00,SystemResetWarning,0833.0,5.00,000.00,030.0,029.4,000.0,038.3,031.9,035.0,0000.0,0036.94,0009.69,0006.70
2024-06-14 11:25:00,SystemResetWarning,0832.9,4.99,000.00,030.1,029.4,000.0,038.4,031.9,035.0,0000.0,0035.52,0009.76,0006.71
2024-06-14 11:26:00,SystemResetWarning,0833.3,5.00,000.00,030.1,029.5,000.0,038.4,031.9,035.0,0000.0,0034.04,0009.88,0006.72
2024-06-14 11:27:00,SystemResetWarning,0833.4,4.99,000.00,030.2,029.6,000.0,038.4,032.0,034.9,0000.0,0031.77,0009.91,0006.74
2024-06-14 11:28:00,SystemResetWarning,0833.4,5.01,000.00,030.2,029.6,000.0,038.4,032.0,034.9,0000.3,0031.75,0009.92,0006.77
2024-06-14 11:29:00,SystemResetWarning,0833.2,5.01,000.00,030.2,029.7,000.0,038.4,032.0,034.8,0001.7,0032.60,0009.97,0006.79
2024-06-14 11:30:00,SystemResetWarning,0833.0,4.99,000.00,030.3,029.7,000.0,038.5,032.0,034.8,0001.5,0034.71,0009.90,0006.79
2024-06-14 11:31:00,SystemResetWarning,0833.2,4.99,000.00,030.3,029.8,000.0,038.5,032.1,034.7,0001.3,0035.61,0009.92,0006.81
2024-06-14 11:32:00,SystemResetWarning,0833.0,5.01,000.00,030.4,029.8,000.0,038.5,032.1,034.6,0001.1,0035.82,0009.98,0006.84
2024-06-14 11:33:00,SystemResetWarning,0833.2,5.01,000.00,030.4,029.9,000.0,038.6,032.2,034.5,0000.9,0034.51,0009.99,0006.87
2024-06-14 11:34:00,SystemResetWarning,0833.2,5.00,000.00,030.4,029.9,000.0,038.6,032.2,034.4,0000.8,0033.79,0009.99,0006.88
2024-06-14 11:35:00,SystemResetWarning,0833.2,4.99,000.00,030.5,030.0,000.0,038.6,032.2,034.3,0000.5,0033.75,0009.98,0006.89
2024-06-14 11:36:00,SystemResetWarning,0833.2,4.99,000.00,030.5,030.0,000.0,038.7,032.2,034.2,0000.8,0034.56,0009.98,0006.90
2024-06-14 11:37:00,SystemResetWarning,0833.2,4.99,000.00,030.5,030.0,000.0,038.7,032.3,034.1,0001.1,0037.11,0009.94,0006.91
2024-06-14 11:38:00,SystemResetWarning,0833.2,5.01,000.00,030.6,030.0,000.0,038.7,032.3,034.2,0001.0,0038.30,0009.94,0006.91
2024-06-14 11:39:00,SystemResetWarning,0833.2,5.01,000.00,030.6,030.1,000.0,038.7,032.3,034.3,0001.2,0037.91,0009.94,0006.92
2024-06-14 11:40:00,SystemResetWarning,0833.1,5.00,000.00,030.6,030.1,000.0,038.8,032.3,034.1,0001.1,0036.28,0009.86,0006.93
2024-06-14 11:41:00,SystemResetWarning,0833.3,5.00,000.00,030.6,030.1,000.0,038.8,032.4,034.1,0001.0,0034.58,0009.95,0006.96
2024-06-14 11:42:00,SystemResetWarning,0833.1,4.99,000.00,030.7,030.1,000.0,038.8,032.4,034.0,0000.9,0034.20,0010.05,0006.98
2024-06-14 11:43:00,SystemResetWarning,0833.0,5.01,000.00,030.7,030.2,000.0,038.9,032.4,034.0,0000.9,0034.39,0010.10,0006.99
2024-06-14 11:44:00,SystemResetWarning,0833.0,5.00,000.00,030.7,029.9,000.0,038.9,032.3,033.9,0001.6,0035.75,0010.06,0007.01
2024-06-14 11:45:00,SystemResetWarning,0833.3,4.99,000.00,030.4,027.6,000.0,038.9,031.2,034.5,0001.9,0037.07,0010.06,0007.02
2024-06-14 11:46:00,SystemResetWarning,0833.0,5.02,000.00,030.0,026.5,000.0,038.9,030.6,035.3,0001.6,0037.87,0010.12,0007.05
2024-06-14 11:47:00,SystemResetWarning,0833.2,5.00,000.00,029.8,026.6,000.0,038.8,030.5,035.8,0001.7,0038.49,0010.19,0007.08
2024-06-14 11:48:00,SystemResetWarning,0833.2,5.00,000.00,029.7,027.0,000.0,038.7,030.8,036.1,0001.4,0037.72,0010.21,0007.12
2024-06-14 11:49:00,SystemResetWarning,0833.1,5.01,000.00,029.7,027.4,000.0,038.5,031.0,036.1,0001.5,0037.01,0010.24,0007.14
2024-06-14 11:50:00,SystemResetWarning,0833.2,5.00,000.00,029.7,027.8,000.0,038.5,031.2,036.0,0001.6,0037.16,0010.29,0007.17
2024-06-14 11:51:00,SystemResetWarning,0833.2,5.00,000.00,029.7,028.1,000.0,038.4,031.3,036.0,0001.2,0037.25,0010.32,0007.19
2024-06-14 11:52:00,SystemResetWarning,0833.2,5.00,000.00,029.8,028.4,000.0,038.4,031.4,035.9,0001.0,0036.90,0010.32,0007.19
2024-06-14 11:53:00,SystemResetWarning,0833.2,5.00,000.00,029.8,028.6,000.0,038.4,031.5,035.9,0001.0,0036.65,0010.28,0007.19
2024-06-14 11:54:00,SystemResetWarning,0833.2,5.00,000.00,029.8,028.8,000.0,038.3,031.6,035.8,0001.6,0036.57,0010.24,0007.21
2024-06-14 11:55:00,SystemResetWarning,0833.2,5.00,000.00,029.9,029.0,000.0,038.3,031.7,035.8,0001.4,0037.17,0010.35,0007.21
2024-06-14 11:56:00,SystemResetWarning,0833.0,5.00,000.00,029.9,029.1,000.0,038.3,031.7,035.8,0000.9,0035.20,0010.39,0007.23
2024-06-14 11:57:00,SystemResetWarning,0833.1,5.00,000.00,030.0,029.2,000.0,038.3,031.7,035.7,0000.9,0035.03,0010.44,0007.23
2024-06-14 11:58:00,SystemResetWarning,0833.2,5.01,000.00,030.0,029.3,000.0,038.3,031.9,035.7,0000.3,0034.04,0010.41,0007.23
2024-06-14 11:59:00,SystemResetWarning,0833.1,5.00,000.00,030.1,029.4,000.0,038.3,031.9,035.6,0000.1,0033.97,0010.52,0007.25
